Regional Weather Roundup
Issued by NWS

Home | Current Version | Previous Version | Graphics & Text | Print | Product List | Glossary On
Versions: 1 2 3 4 5 6 7 8 9 10 11 12 13 14 15 16 17 18 19 20 21 22 23 24 25 26 27 28 29 30 31 32 33 34 35 36 37 38 39 40 41 42 43 44 45 46 47 48 49 50
000
ASUS45 KBOU 051410
RWRCO

WEATHER ROUNDUP FOR COLORADO
NATIONAL WEATHER SERVICE DENVER/BOULDER CO
800 AM MDT SUN JUL 05 2015

NOTE: "FAIR" INDICATES FEW OR NO CLOUDS BELOW 12000 FEET WITH NO
SIGNIFICANT WEATHER AND/OR OBSTRUCTIONS TO VISIBILITY.

COZ001>005-013-030-031-051500-
...NORTHWEST COLORADO...

CITY           SKY/WX    TMP DP  RH WIND       PRES   REMARKS
CRAIG          CLOUDY    62  55  77 E5        30.19R
HAYDEN         CLOUDY    63  46  55 E7        30.21S
MEEKER         CLOUDY    65  55  70 SE3       30.20R
MOUNT WERNER   NOT AVBL
STEAMBOAT SPGS CLOUDY    58  49  73 CALM      30.23S
WALDEN         MOSUNNY   59  46  63 SE6       30.27S
$$

COZ006>008-011-051500-
...WEST CENTRAL VALLEYS...

CITY           SKY/WX    TMP DP  RH WIND       PRES   REMARKS
GRAND JUNCTION CLOUDY    66  62  87 N3        30.12S
MONTROSE       PTSUNNY   67  58  72 N6        30.19R
EAGLE          MOSUNNY   61  48  63 CALM      30.23S
RIFLE          CLOUDY    65  58  78 NE6       30.15S
DELTA          PTSUNNY   72  59  64 NE3       30.14S
NUCLA          CLOUDY    63  59  88 CALM      30.22S
$$

COZ017>023-064>068-051500-
...SOUTHWEST COLORADO...

CITY           SKY/WX    TMP DP  RH WIND       PRES   REMARKS
DURANGO        CLOUDY    59  56  89 CALM      30.24R
CORTEZ         CLOUDY    65  57  75 CALM      30.19S
PAGOSA SPRINGS CLOUDY    57  55  91 CALM      30.30S
TELLURIDE      CLOUDY    54  50  87 CALM      30.39R
WOLF CREEK PAS NOT AVBL
$$

COZ009-010-012-014-032>034-037-058>063-051500-
...CENTRAL COLORADO...

CITY           SKY/WX    TMP DP  RH WIND       PRES   REMARKS
ASPEN          PTSUNNY   59  47  64 CALM      30.29S
BUENA VISTA    MOSUNNY   62  47  57 NW7       30.27F
COPPER MTN     NOT AVBL
BERTHOUD PASS  FAIR      43  34  70 N8G24     30.60S
COTTONWOOD PAS NOT AVBL
GUNNISON       MOSUNNY   57  46  67 N5        30.32S
KREMMLING      MOSUNNY   55  45  67 CALM      30.29S
LEADVILLE      MOSUNNY   54  44  69 N7        30.39S
MONARCH PASS   MOSUNNY   45  41  87 SW17      30.66R
SALIDA         MOSUNNY   63  49  60 N10       30.31R
SUNLIGHT       CLOUDY    52  48  87 CALM      30.50S
WILKERSON PASS MOSUNNY   54  37  54 NW3       30.52S
$$

COZ069>075-051500-
...SAN LUIS VALLEY/SANGRE DE CRISTO MOUNTAINS...

CITY           SKY/WX    TMP DP  RH WIND       PRES   REMARKS
ALAMOSA        PTSUNNY   59  48  67 SE3       30.27R
LA VETA PASS   MOSUNNY   50  43  76 MISG      30.40S
SAGUACHE       MOSUNNY   61  50  67 NW7       30.31R
$$

COZ035-036-038>040-051500-
...NORTHERN COLORADO FRONT RANGE...

CITY           SKY/WX    TMP DP  RH WIND       PRES   REMARKS
DENVER INTL AP MOSUNNY   74  52  46 SW13      30.01R
DMNS CITY PARK   N/A     72  53  50 S5G10     30.01S
AURORA         MOSUNNY   72  53  51 SW9       30.04S
FRONT RANGE AP PTSUNNY   77  55  47 S8        30.02S
ERIE MUNI ARPT SUNNY     73  54  51 S5        29.99S
BOULDER MUN AP SUNNY     75  54  46 S3        30.00R
CENTENNIAL     MOSUNNY   74  52  46 SW6       30.05S
BROOMFIELD     MOSUNNY   73  55  53 CALM      30.03S
FORT COLLINS   SUNNY     70  55  60 CALM      29.99S
LONGMONT       SUNNY     77  53  43 W3        30.00R
$$

COZ041-046-047-076>085-087-088-051500-
...PIKES PEAK/PALMER DIVIDE AND SOUTHERN FOOTHILLS...

CITY           SKY/WX    TMP DP  RH WIND       PRES   REMARKS
COLO. SPRINGS  MOSUNNY   73  55  53 N8        30.08S
A. F. ACADEMY  SUNNY     69  53  57 N6        30.10S
ELLICOTT       SUNNY    N/A N/A N/A N3        30.06S
FALCON         SUNNY     72  51  47 CALM      30.14S
FORT CARSON    SUNNY     70  53  56 NW9       30.04S
LIMON          SUNNY     71  56  58 CALM      30.01S
MONUMENT HILL  MOSUNNY   68  52  56 SW3       30.15S
TRINIDAD       SUNNY     73  53  49 W6        30.07R
$$

COZ042>045-048>051-090-091-051500-
...NORTHEAST COLORADO...

CITY           SKY/WX    TMP DP  RH WIND       PRES   REMARKS
GREELEY ARPT   SUNNY     68  59  73 W5        29.98R
AKRON          MOSUNNY   76  53  44 SW9       29.94S
BURLINGTON     SUNNY     74  58  57 SW8       29.93S
WRAY           SUNNY     76  58  54 W8        29.88F
STERLING       MOSUNNY   72  59  64 SW5         N/A
HOLYOKE        SUNNY     73  61  64 SW5       29.88F
FORT MORGAN    MOSUNNY   68  55  62 W10       29.94S
$$

COZ086-089-092>099-051500-
...SOUTHEAST COLORADO...

CITY           SKY/WX    TMP DP  RH WIND       PRES   REMARKS
PUEBLO         SUNNY     72  53  51 SW6       29.98S
LA JUNTA       SUNNY     76  54  46 SW8       29.94S
LAMAR          SUNNY     75  57  53 CALM      29.90F
SPRINGFIELD      N/A     75  60  59 SW16G23   29.98S
$$


USA.gov is the U.S. government's official web portal to all federal, state and local government web resources and services.